GFSMA_con_3kmhel_021.txt.gz
Helicity
116 111 124 132 120 106 78 58 41 37 37 44 41 14 12 34 59 88 88 50 28 22 41 59 56 45 67 65 57 50 41 42 51 59 56 49 44 41 27 11 -12 79 87
147 169 174 169 165 130 96 82 64 63 48 49 54 42 45 51 75 85 107 99 89 84 60 33 32 58 61 74 77 68 63 59 56 56 61 64 60 59 41 45 41 -11 83
205 194 216 209 167 153 151 120 93 71 62 42 47 66 72 83 84 95 95 106 132 130 115 98 80 37 50 64 79 86 76 69 66 60 56 71 75 74 63 43 67 43 48
279 258 268 216 156 146 102 104 36 8 75 63 51 61 74 77 83 91 97 89 111 141 153 186 180 147 78 35 57 72 88 70 57 66 73 71 74 83 78 76 61 72 44
300 287 211 175 147 116 108 63 75 104 89 100 104 114 111 108 94 83 118 119 120 142 161 238 270 234 189 112 46 44 73 89 83 66 68 74 79 90 90 92 76 42 74
276 179 157 178 147 112 108 139 132 123 96 80 108 124 134 127 151 160 134 125 107 102 116 144 168 190 251 237 176 98 54 72 83 66 53 59 74 78 97 86 96 87 65
158 167 133 140 101 92 88 99 84 105 71 93 68 88 67 95 136 160 147 117 129 106 70 79 95 121 165 234 235 212 159 68 76 78 69 55 53 84 95 95 86 91 85
141 142 110 106 117 98 148 151 137 101 84 113 82 52 71 54 124 113 106 100 109 67 64 50 39 87 120 139 173 235 222 232 190 121 94 65 41 32 92 104 98 91 94
168 126 117 117 120 105 136 138 155 163 153 122 131 106 120 117 92 49 78 25 26 -1 -24 -14 -4 62 99 141 164 159 203 218 204 147 149 132 89 16 45 112 104 95 91
180 152 149 108 57 135 186 151 143 125 121 130 98 151 133 111 66 34 55 84 27 34 21 11 36 62 85 124 182 184 186 158 201 189 151 121 97 58 -3 69 112 100 86
152 86 125 -36 75 152 133 112 92 101 93 89 105 108 101 103 115 139 72 63 68 78 81 36 71 84 98 126 196 230 260 191 135 202 184 153 86 94 77 36 77 93 89
158 115 112 130 120 99 77 53 76 101 105 118 121 137 149 124 158 146 143 153 90 43 32 48 84 112 132 125 127 182 251 212 175 139 208 225 319 272 170 103 66 80 84
172 140 120 78 55 46 44 69 87 96 113 125 138 141 145 157 164 155 146 116 76 64 25 38 90 136 179 172 130 98 123 133 174 187 178 187 178 322 278 219 172 106 92
150 124 111 120 177 164 79 113 77 64 82 111 133 126 135 147 168 134 128 78 125 83 65 44 90 123 123 130 120 93 78 98 102 118 164 223 159 196 257 215 208 158 155
153 151 213 285 145 142 139 83 84 74 69 99 129 139 137 124 131 136 101 35 1 100 109 69 54 67 91 79 79 102 82 59 57 62 82 209 223 238 355 458 395 293 205
209 249 253 129 112 151 139 103 59 48 75 112 122 123 111 96 89 88 80 67 66 67 79 85 41 63 42 77 74 76 97 88 35 14 5 59 212 273 307 386 583 674 344
195 196 182 109 188 139 110 94 63 70 99 120 120 115 100 92 92 88 94 100 106 109 119 85 76 53 73 41 72 77 67 89 59 13 -17 -24 94 189 307 300 244 462 892
233 241 219 196 82 136 113 84 92 161 152 138 120 110 99 90 89 80 85 89 109 123 143 122 112 126 92 71 76 58 68 90 87 74 73 -54 -50 100 223 325 367 243 308
210 256 191 148 129 94 91 121 167 205 169 139 126 114 116 120 120 102 90 87 92 96 117 140 131 130 113 91 70 71 72 99 83 129 156 129 -47 -17 48 150 249 302 84
175 134 124 88 138 122 147 176 161 171 149 138 133 141 151 151 141 125 110 99 96 97 102 107 113 117 112 94 88 52 57 42 67 100 143 107 123 96 2 31 61 95 289
134 109 180 177 169 157 143 142 157 137 132 141 152 154 153 143 100 112 120 113 109 112 103 112 89 90 101 108 90 75 49 29 37 41 96 119 126 183 167 119 67 53 56
141 166 110 146 147 133 123 122 127 131 143 143 148 152 147 109 105 76 64 59 68 97 98 87 63 68 79 81 77 64 65 50 29 35 83 121 120 141 192 213 210 162 66
119 93 119 164 141 134 129 142 146 142 125 136 147 135 112 113 87 104 75 63 61 41 70 72 54 52 52 63 63 67 62 51 42 52 50 55 86 92 115 154 183 184 163
116 129 157 135 126 115 139 121 126 118 117 128 119 99 96 99 96 69 79 72 57 63 62 65 55 46 40 46 58 59 64 38 27 31 57 56 63 85 106 96 109 127 130
117 136 133 125 130 120 117 104 110 102 105 111 86 83 76 75 58 40 69 75 76 43 37 16 19 30 37 59 52 57 58 33 30 42 71 56 60 60 90 119 115 90 97
147 136 122 128 137 113 87 88 85 91 108 110 84 69 58 61 41 30 65 67 61 39 1 -29 -9 4 14 13 15 29 15 25 34 30 38 77 75 72 44 75 118 109 103

GFSMA_con_3kmhel_027.txt.gz
Helicity
102 113 121 132 143 141 144 143 113 74 78 64 45 20 15 47 65 74 70 90 111 129 144 149 137 130 123 117 117 118 109 83 103 116 124 109 82 77 74 86 88 83 51
115 129 137 132 129 134 128 102 117 59 88 77 59 59 60 90 116 127 124 124 162 183 186 182 182 174 164 146 147 134 124 114 100 85 119 134 110 94 94 81 78 89 73
136 116 118 148 154 194 172 91 116 89 102 76 64 71 81 118 141 155 157 173 171 183 209 227 231 221 206 193 173 160 158 126 121 109 71 109 128 121 112 107 88 89 97
129 152 215 188 155 179 114 123 111 87 81 86 107 130 141 158 161 167 174 187 190 172 159 201 205 193 177 179 193 179 162 177 144 136 119 73 95 109 127 122 117 112 98
147 232 210 175 163 145 148 120 107 84 85 99 106 105 130 144 158 191 202 194 196 196 187 198 204 169 166 146 126 145 172 161 174 187 164 124 79 83 93 117 127 130 129
163 153 164 132 127 142 134 112 88 84 67 84 87 108 105 116 179 224 225 191 185 170 152 153 133 123 132 157 155 117 109 160 170 162 180 209 220 109 92 87 102 122 128
159 156 139 144 128 118 88 80 72 105 128 134 88 116 85 80 123 173 216 199 207 160 155 142 126 107 109 119 109 162 162 109 136 177 152 166 181 195 171 86 103 115 112
137 142 146 131 129 142 158 152 134 94 96 127 111 99 151 136 216 239 213 197 186 144 155 105 99 89 76 67 93 119 146 160 136 144 188 158 153 173 175 147 80 89 101
167 170 145 135 146 144 146 127 131 123 124 155 196 220 244 265 253 210 181 174 175 126 90 71 58 86 77 87 97 101 113 135 145 119 141 182 163 148 164 157 124 65 70
184 184 163 150 153 145 136 115 109 116 127 185 176 161 168 185 210 181 159 139 136 96 82 68 87 114 120 91 104 100 118 132 140 149 134 163 205 189 182 172 111 63 48
154 156 152 169 178 169 120 94 67 91 128 149 163 163 150 139 106 131 140 129 106 87 70 104 101 106 90 90 92 96 136 106 111 142 144 157 161 214 231 275 140 58 43
158 147 149 150 161 141 117 102 95 112 125 119 117 99 77 87 76 72 85 94 92 70 78 79 115 81 67 54 102 160 171 128 85 95 124 145 152 167 249 295 378 259 83
135 131 141 159 167 159 141 128 108 118 147 152 134 76 64 50 45 57 76 91 86 68 59 65 50 58 80 53 42 75 117 148 122 76 69 106 122 151 176 261 311 424 332
123 142 171 178 158 163 179 127 117 145 148 125 78 105 73 57 86 97 98 100 90 78 63 37 48 49 44 80 92 46 56 54 109 84 51 59 98 127 126 186 242 296 308
142 142 136 132 159 196 181 148 171 164 159 135 114 85 90 94 123 136 140 143 128 99 71 51 44 44 51 58 70 78 72 44 43 55 51 21 24 87 108 121 169 199 103
125 122 125 156 186 227 175 153 162 119 117 108 124 112 105 120 145 140 133 136 136 141 136 114 88 69 59 64 62 60 73 67 69 48 39 35 -3 9 52 65 91 133 160
114 125 136 145 180 190 159 104 100 99 113 109 132 137 134 138 137 135 140 143 146 147 136 104 103 75 55 58 60 64 74 73 74 44 52 59 50 -4 -9 18 28 68 129
109 116 133 148 179 142 107 110 127 127 119 138 146 145 126 136 130 126 137 142 156 139 135 90 80 74 70 71 75 81 93 92 78 71 59 79 72 59 9 1 -0 33 80
113 125 138 145 129 135 159 168 159 137 145 140 128 118 118 128 121 131 146 139 122 123 124 123 90 84 74 68 71 79 85 76 88 63 43 36 37 66 70 38 6 -8 35
121 140 154 138 143 145 154 151 146 135 117 113 112 118 121 121 121 130 119 95 105 126 121 115 93 81 76 74 103 70 71 78 67 69 58 39 55 56 80 102 5 7 -26
126 151 164 175 152 147 146 130 119 99 97 94 96 99 109 102 92 100 96 87 102 114 110 101 96 82 69 62 67 64 76 81 90 72 70 73 56 46 54 77 83 15 29
113 120 132 125 144 161 162 138 94 83 81 83 90 89 93 78 97 63 49 60 82 100 88 89 92 85 45 46 41 45 56 68 86 36 59 70 59 76 81 86 147 188 123
134 142 128 133 148 141 117 102 87 71 74 84 87 87 88 90 89 77 56 62 74 54 69 69 74 58 38 36 31 40 36 37 57 80 54 61 60 78 72 69 94 167 188
127 121 130 141 134 119 102 85 75 74 79 81 79 80 80 79 82 60 56 78 76 60 60 69 40 35 31 31 28 20 19 43 16 17 14 19 47 61 64 58 37 92 167
127 128 133 141 127 105 92 82 66 75 73 71 78 69 67 81 67 32 45 61 57 58 57 26 3 3 12 13 -1 -21 -15 11 13 16 16 20 40 56 72 72 51 47 97
128 145 152 144 126 91 88 78 70 74 72 75 60 57 65 68 38 23 42 65 77 61 40 26 18 5 11 17 15 -2 -6 -6 2 19 5 27 40 46 53 47 48 40 42

GFSMA_con_3kmhel_030.txt.gz
Helicity
76 78 90 85 84 89 109 101 122 117 86 91 49 51 34 23 19 33 50 172 139 137 145 150 158 160 146 127 129 148 155 141 129 115 77 71 75 110 110 103 92 92 82
97 98 84 85 98 144 167 136 135 109 76 93 92 59 27 36 59 81 96 130 166 150 164 175 176 173 184 185 161 148 164 181 170 150 136 87 77 69 93 104 107 97 86
91 87 97 118 174 213 179 165 120 108 109 100 65 53 58 81 98 117 120 153 167 146 132 180 196 190 177 177 177 176 158 163 170 191 171 149 110 68 64 71 90 108 99
123 142 161 148 179 177 165 152 133 109 96 79 80 71 77 88 114 99 122 148 190 191 160 227 191 200 190 197 175 160 166 161 154 159 173 205 197 128 83 67 70 82 108
154 156 180 193 169 154 155 130 107 90 86 101 83 68 77 76 85 118 144 150 163 183 192 233 175 147 189 192 206 189 143 144 163 152 157 178 208 211 184 96 83 75 78
153 158 176 170 139 148 135 109 90 92 83 110 88 74 79 55 78 133 154 155 166 172 156 195 197 190 198 174 184 193 220 171 132 145 173 162 153 188 198 198 98 84 75
163 167 169 154 130 136 123 111 114 130 105 118 74 103 74 67 88 124 154 134 147 175 176 174 151 186 182 194 138 192 182 205 211 163 140 178 167 147 176 175 192 81 90
192 197 173 160 143 150 148 142 135 114 114 142 108 95 144 181 111 239 204 168 176 219 182 181 158 147 119 115 124 122 99 150 162 177 162 121 172 171 155 186 165 155 87
209 194 159 165 157 145 145 122 143 118 149 116 158 154 203 253 288 179 208 145 208 174 161 145 153 146 127 116 117 121 137 119 100 112 158 177 164 184 191 186 204 165 114
160 156 163 140 124 112 117 121 127 117 111 121 125 141 167 170 216 259 188 118 81 103 100 91 107 106 102 96 87 63 149 132 99 96 104 146 180 199 197 223 214 230 131
148 147 128 118 110 101 112 136 154 147 128 144 141 168 174 148 122 160 167 105 109 99 98 101 88 62 89 75 88 99 105 85 134 116 109 127 148 203 232 233 235 232 227
147 133 111 114 129 137 152 170 160 131 133 137 125 118 106 110 100 109 120 104 73 76 104 87 80 62 56 50 67 56 38 53 63 85 89 83 138 177 249 258 286 261 291
104 106 130 130 150 160 170 169 148 94 95 112 144 115 109 95 96 101 105 109 103 84 84 86 73 51 51 52 63 51 86 63 70 60 65 54 69 116 174 217 261 304 304
121 148 143 139 130 132 143 153 123 87 82 112 127 99 109 94 113 126 117 108 102 92 90 62 66 69 71 61 81 62 77 59 61 65 69 42 33 62 107 151 205 270 279
134 130 112 108 109 126 143 130 83 81 91 122 95 104 115 110 124 135 111 110 124 117 101 69 63 61 78 82 85 85 71 78 93 88 76 65 34 22 57 106 154 206 235
121 116 109 109 121 133 129 92 102 73 91 94 90 105 102 110 115 110 97 109 121 123 128 95 70 66 67 68 56 61 63 53 57 64 73 84 65 33 27 73 100 145 209
109 98 98 99 108 121 120 104 80 102 110 93 93 90 97 89 101 100 106 112 121 124 130 100 73 70 71 73 68 73 78 66 76 66 69 72 86 81 45 41 54 81 121
93 88 94 95 104 121 108 107 120 152 119 92 97 98 82 94 85 92 108 110 130 137 138 88 73 82 86 77 72 71 70 75 66 64 42 67 55 93 88 59 34 47 69
93 90 101 121 139 151 124 148 125 127 97 100 92 80 83 89 94 103 108 117 143 120 103 113 105 99 87 78 69 72 64 49 58 55 67 39 2 30 62 80 73 43 44
94 108 120 127 141 152 143 123 110 96 84 76 75 78 88 96 102 108 110 110 121 98 89 109 120 98 81 65 61 60 74 66 43 60 61 72 79 29 44 50 71 76 29
108 102 124 132 120 118 142 120 94 68 57 64 68 78 89 127 92 86 103 98 89 81 96 110 105 92 87 69 51 41 43 43 46 58 29 57 44 21 42 -11 33 78 114
107 118 136 138 134 135 178 129 79 57 56 61 70 74 82 97 92 75 62 61 55 68 81 92 94 91 57 52 36 21 27 20 44 31 49 53 51 52 77 81 89 102 143
115 138 127 129 125 155 146 111 73 44 63 68 69 75 81 82 73 75 76 38 36 48 85 89 76 61 38 6 4 9 22 19 15 28 34 56 62 44 73 95 17 52 101
125 131 131 136 115 172 136 91 52 38 56 65 72 73 69 66 79 93 58 34 37 53 65 79 57 38 -2 -33 -25 -4 11 12 20 21 21 41 38 39 46 55 23 35 68
121 122 145 130 113 136 128 76 43 55 60 59 68 69 79 56 80 45 45 31 25 39 73 52 27 21 17 17 15 1 3 -20 -2 10 -0 4 12 22 26 36 49 4 27
123 131 143 135 161 116 133 76 56 56 60 60 61 64 84 87 46 33 45 38 32 32 38 27 23 16 19 21 60 54 28 1 -7 -6 27 8 -1 10 23 4 29 39 41

GFSMA_con_3kmhel_033.txt.gz
Helicity
70 48 65 48 74 75 96 126 169 137 80 65 62 50 43 16 21 30 59 123 132 105 95 118 128 135 140 136 143 152 159 162 166 155 152 151 137 86 80 74 75 74 81
84 71 53 78 105 173 186 140 137 82 96 78 68 59 58 29 22 49 71 57 132 118 95 99 113 123 127 141 143 147 164 176 175 192 200 187 188 169 93 80 78 70 67
139 84 168 232 138 131 103 126 120 129 102 86 59 69 59 70 77 83 83 64 113 119 117 119 113 118 124 122 134 146 154 150 167 177 192 200 215 208 198 111 70 82 74
158 166 174 156 135 124 140 147 143 113 84 62 54 72 81 74 85 76 59 148 155 153 143 125 152 115 124 147 165 166 153 152 166 182 187 193 219 216 218 207 154 76 80
118 123 147 145 120 140 135 106 81 62 63 68 81 109 84 66 76 66 73 183 127 93 146 126 196 121 121 167 148 158 165 194 174 174 197 214 223 235 217 209 204 175 75
98 108 157 148 112 125 119 143 96 89 96 89 88 103 51 89 62 122 90 106 160 138 143 178 141 103 178 176 162 143 199 194 178 196 212 220 227 245 235 215 204 197 175
116 125 139 121 101 105 90 65 86 82 82 90 105 92 109 22 88 104 59 236 227 159 182 207 127 186 116 187 53 161 170 154 239 230 187 142 141 186 238 222 224 219 193
146 144 150 150 171 113 101 125 119 119 122 154 131 148 160 142 121 266 309 264 151 180 147 143 142 113 131 123 151 192 262 201 148 130 137 162 153 145 194 234 229 230 230
168 154 149 150 138 118 146 171 170 168 176 131 140 147 170 213 242 175 173 181 214 158 99 60 89 104 126 106 81 119 130 120 144 119 123 119 139 145 137 198 218 222 255
173 166 170 156 153 156 163 166 181 224 135 169 149 146 166 193 244 251 182 123 100 75 89 90 82 87 81 53 95 117 83 41 48 85 149 153 148 132 137 161 205 210 261
114 115 133 161 153 139 142 154 160 155 147 166 185 195 181 191 165 191 229 165 89 66 57 66 86 75 42 50 66 57 -9 17 8 42 92 135 155 150 144 157 247 226 265
158 164 164 169 161 124 114 149 206 177 192 146 111 152 151 161 146 142 129 95 94 62 84 71 64 63 61 56 44 62 67 45 64 38 48 64 96 106 114 146 197 276 260
164 165 181 135 134 132 128 146 205 171 121 102 83 98 149 164 139 99 115 118 111 76 85 94 65 63 61 66 73 93 123 90 61 36 33 39 67 85 94 114 150 199 267
150 151 120 116 101 93 99 115 175 200 112 92 94 107 153 122 118 122 136 138 99 106 103 85 78 66 63 70 74 70 81 87 82 91 89 81 75 72 72 71 104 126 173
130 128 125 110 99 97 109 123 148 184 108 104 110 104 102 96 124 144 148 109 87 123 119 102 96 52 63 71 84 85 83 56 45 42 41 32 50 61 65 52 67 98 113
124 120 114 102 100 104 103 93 140 94 74 103 112 117 124 107 115 114 96 77 97 109 150 112 94 79 86 85 71 79 89 74 46 39 37 91 61 60 63 59 49 79 88
122 111 101 103 102 78 91 171 92 60 92 122 153 116 77 95 110 78 86 101 120 119 149 136 109 95 88 87 89 96 89 82 73 43 50 55 74 106 71 58 56 66 87
110 95 102 92 92 139 142 112 136 184 191 171 135 127 137 95 97 94 100 111 122 116 138 123 105 83 73 77 85 84 82 77 79 51 54 26 73 97 63 49 49 46 70
102 92 89 106 120 117 120 129 176 171 120 117 112 85 77 77 80 93 113 117 114 117 139 162 114 89 94 92 82 70 63 57 47 25 23 17 48 57 48 29 17 42 64
98 87 100 129 146 85 155 143 146 150 133 89 79 77 72 75 96 139 105 114 113 128 124 120 98 85 90 71 69 64 42 46 44 37 44 52 45 4 20 28 36 35 60
97 89 105 163 126 132 154 192 138 118 105 73 70 63 71 128 118 100 90 79 80 95 100 85 81 90 87 77 67 47 44 35 27 36 -0 19 29 28 31 -12 -22 65 68
104 93 132 140 136 152 307 210 136 100 69 60 65 73 76 89 124 121 55 98 75 71 54 71 80 86 64 53 22 23 21 26 23 27 19 8 22 54 80 86 70 37 56
116 101 125 146 126 181 277 194 126 75 52 66 68 70 79 91 110 121 121 82 56 46 82 90 76 74 62 44 31 18 -19 -14 10 23 21 18 24 44 70 84 15 33 34
121 112 149 152 139 228 284 181 103 49 54 60 67 68 78 93 141 113 78 52 45 38 35 67 81 61 38 16 11 5 -1 2 8 21 11 -1 23 31 32 25 54 -4 -14
123 114 118 148 149 216 272 185 99 60 53 60 59 66 108 78 132 88 59 52 41 35 31 40 31 12 29 40 50 49 49 29 30 14 6 8 1 15 34 20 27 4 15
105 126 124 136 183 215 223 171 104 66 60 52 53 71 148 137 117 65 54 53 48 32 27 10 29 17 11 7 17 55 63 81 67 35 2 14 15 13 9 9 1 10 31

GFSMA_con_3kmhel_039.txt.gz
Helicity
205 147 125 176 194 185 214 167 141 146 128 109 92 71 53 65 57 28 41 37 70 101 124 99 64 23 36 57 71 114 162 171 163 159 168 162 154 161 152 157 152 164 118
151 132 178 224 199 168 164 148 140 129 118 94 76 63 61 56 32 21 42 26 83 139 124 93 78 82 65 22 31 47 66 118 147 185 176 174 190 160 167 167 174 155 164
190 204 185 168 145 112 127 143 142 136 129 111 88 40 86 57 25 36 66 64 70 90 99 139 174 163 120 81 56 56 58 33 46 118 173 205 220 215 172 176 176 188 153
182 175 141 128 115 116 117 128 118 123 99 76 56 71 68 61 50 66 78 88 106 130 126 229 267 258 217 154 149 110 82 93 42 39 86 226 274 223 198 155 157 156 158
106 157 106 100 136 137 150 117 96 80 76 56 35 36 29 38 53 65 152 221 290 275 222 267 342 330 295 253 197 142 99 20 56 140 127 135 118 182 185 196 165 171 180
87 79 88 91 128 139 125 99 88 90 66 45 47 24 21 34 76 112 160 194 241 301 289 251 205 176 184 181 145 114 67 19 134 154 209 219 170 131 144 208 204 181 179
115 112 103 74 93 119 104 109 109 110 59 60 46 19 -1 71 54 138 143 169 203 233 243 245 239 188 159 179 148 103 59 92 77 63 84 84 119 155 156 156 193 219 200
115 131 143 168 170 162 171 157 133 109 100 96 67 52 59 58 87 96 125 137 172 181 224 196 192 194 151 113 100 112 57 9 10 29 39 46 45 71 125 145 183 170 216
149 88 104 136 182 157 132 118 114 125 125 119 119 141 139 147 109 131 131 209 151 115 107 115 191 229 198 146 96 45 11 14 -8 33 46 49 57 75 80 107 165 174 177
133 87 105 116 175 132 129 118 117 128 165 156 171 184 196 195 178 182 253 243 201 145 121 165 156 110 67 44 81 107 97 47 47 48 43 26 25 42 57 80 90 165 170
134 152 294 290 267 234 209 184 170 173 177 196 198 204 223 232 225 263 267 279 220 148 142 128 57 21 7 51 59 49 64 45 54 43 31 28 33 31 30 42 83 90 116
379 350 288 327 280 253 207 173 172 172 174 193 209 215 229 240 257 275 274 253 250 163 142 100 107 62 86 84 59 66 81 104 83 95 75 49 39 36 29 34 67 92 81
384 351 270 254 198 167 169 170 162 160 159 190 227 235 230 212 226 241 266 251 246 184 145 126 83 98 90 71 70 122 158 120 95 75 71 60 38 30 19 22 38 67 91
365 421 251 222 200 171 153 138 135 146 165 197 255 240 214 184 209 253 207 204 216 185 163 121 88 90 93 94 123 141 76 73 59 44 51 45 16 2 8 19 27 31 45
308 356 291 211 172 144 129 139 156 184 182 173 178 162 204 190 213 190 182 178 190 197 125 101 85 94 93 109 114 100 81 39 21 45 28 13 14 19 26 39 51 53 45
217 277 222 197 156 127 147 186 155 145 160 162 161 218 233 201 196 182 190 199 204 224 168 115 78 74 92 96 107 96 46 23 51 43 42 56 74 77 74 65 64 71 56
234 202 168 140 125 125 174 149 134 112 168 199 208 211 190 158 160 190 213 184 147 122 118 88 85 74 78 81 53 47 66 69 75 67 73 77 87 79 69 62 52 67 68
210 179 151 137 120 149 157 153 158 152 165 166 166 167 148 179 169 160 131 113 93 71 91 89 94 83 76 74 88 82 76 75 80 70 73 66 71 65 70 66 72 73 86
224 210 165 137 143 165 188 172 153 166 174 160 167 170 146 143 146 133 116 107 88 84 114 138 118 94 106 105 99 86 81 73 65 56 73 81 68 78 58 12 19 49 55
219 179 139 120 115 197 196 165 182 240 234 206 177 157 146 173 146 125 108 91 106 122 122 122 104 93 96 96 103 80 54 58 33 19 33 59 56 53 47 39 19 23 54
122 116 100 97 127 187 204 184 209 228 209 185 157 132 155 133 108 103 137 124 129 121 118 117 107 98 95 93 83 80 70 51 50 63 56 57 47 46 49 53 39 25 33
103 122 112 110 114 201 231 228 215 205 188 166 128 114 124 127 163 170 171 155 130 109 105 132 105 102 87 77 76 77 77 65 77 100 109 67 83 69 72 58 26 19 70
118 98 111 135 132 207 232 235 215 196 188 159 121 121 124 154 148 138 136 115 92 73 107 116 112 103 89 83 99 62 63 99 129 187 108 96 103 91 113 82 52 26 18
95 93 138 151 141 196 210 218 221 215 194 160 130 134 121 127 128 131 118 93 75 80 83 95 114 81 89 91 100 89 81 108 88 85 74 88 110 89 83 97 64 34 31
90 109 148 148 150 186 201 225 243 211 185 157 129 120 123 144 122 129 101 68 63 76 64 54 43 46 45 49 52 55 44 3 -15 5 82 82 108 83 61 38 -5 18 19
103 127 131 192 187 187 189 213 216 220 190 152 121 139 147 119 118 102 80 78 79 80 79 77 78 75 80 70 50 53 34 3 8 14 88 128 113 95 13 8 28 28 9

GFSMA_con_3kmhel_042.txt.gz
Helicity
59 107 141 156 191 186 170 175 152 149 141 116 106 93 89 82 72 47 58 59 33 69 113 128 96 83 68 6 18 58 111 127 137 151 152 160 204 210 185 189 184 161 162
166 185 200 217 223 194 178 161 136 135 122 101 94 103 107 79 75 70 67 105 43 94 107 118 115 89 74 51 23 10 -3 -3 32 117 160 169 181 186 173 169 174 167 152
171 192 222 220 189 171 173 158 141 127 119 101 125 90 53 43 70 68 111 113 109 139 204 208 189 163 139 107 84 66 48 65 67 43 26 87 129 146 155 142 145 178 167
177 197 206 221 189 182 165 141 120 130 119 86 26 50 44 42 66 112 130 165 167 188 245 259 240 223 208 192 174 150 129 109 59 -17 -5 34 32 38 147 163 162 155 189
135 171 195 202 174 155 126 120 128 86 43 21 20 40 16 42 80 107 144 169 229 261 251 240 254 222 220 199 191 178 151 70 14 40 -1 13 32 78 95 153 210 192 168
166 160 158 157 133 146 146 127 86 43 18 19 34 35 -16 10 68 122 130 139 192 241 240 242 231 219 235 216 177 119 80 67 61 60 77 81 140 89 113 165 158 251 229
143 148 154 149 148 155 114 63 44 52 63 69 55 37 -6 29 37 101 89 111 156 159 202 214 206 187 187 201 184 169 126 92 47 64 58 72 89 71 86 112 151 170 268
163 166 157 145 113 94 77 110 103 101 87 61 71 50 83 86 111 40 38 74 142 140 166 185 190 171 135 110 125 171 174 133 94 61 51 47 33 32 69 96 121 127 145
152 167 133 113 86 119 109 133 127 102 99 86 78 115 130 128 124 83 101 86 113 130 124 152 162 151 119 121 139 128 121 106 86 60 48 47 42 44 27 58 93 120 124
163 179 195 205 157 185 142 160 136 114 107 100 123 138 154 167 144 143 117 153 179 162 142 136 107 85 97 98 64 75 62 69 61 70 67 56 31 23 38 40 55 73 76
265 275 246 255 302 291 247 196 184 169 116 137 155 170 177 183 185 175 156 138 199 151 139 138 112 110 92 99 120 91 104 107 71 66 54 47 50 52 45 38 35 49 79
383 389 352 288 225 311 292 207 161 186 178 175 188 188 215 215 175 196 188 175 183 169 166 150 131 124 114 106 114 126 147 119 120 109 90 80 72 58 55 46 41 42 48
464 378 265 336 311 299 234 151 160 186 196 172 174 183 208 207 215 211 223 234 223 212 205 181 147 128 127 134 120 147 124 108 101 88 77 61 46 35 39 47 49 45 42
426 453 464 321 180 106 152 148 128 128 147 155 149 152 171 180 202 226 235 262 242 223 198 135 108 146 131 98 109 113 97 108 100 74 54 46 37 30 37 45 49 42 34
523 294 378 499 264 148 138 150 135 131 140 111 105 124 148 164 193 221 212 216 201 267 180 108 98 91 74 72 78 95 100 79 76 76 58 53 69 64 57 55 54 53 51
413 446 415 280 195 166 122 118 115 123 115 95 127 160 153 150 152 144 151 177 176 164 176 148 83 54 42 54 63 95 90 88 75 70 85 86 73 71 70 73 69 65 57
418 323 179 166 172 138 115 129 126 118 110 100 132 145 152 171 175 169 153 155 157 146 147 103 94 61 71 67 77 96 98 105 98 75 67 74 78 84 89 99 105 101 80
308 218 213 223 183 129 93 122 111 124 114 127 145 157 151 154 150 134 144 134 122 99 100 97 97 97 85 82 96 98 96 90 86 59 61 74 70 81 95 86 66 71 66
303 286 263 214 137 94 118 129 124 123 138 142 179 181 157 144 132 141 131 113 108 108 112 120 127 122 112 95 91 94 94 80 70 40 31 37 42 72 81 89 85 73 59
367 358 270 169 143 149 118 128 141 159 176 177 182 163 138 130 133 124 124 124 116 108 109 121 123 115 107 85 101 92 67 74 78 94 101 58 65 85 63 54 44 54 50
549 370 238 133 163 171 139 146 198 200 206 182 171 156 138 118 109 112 143 116 117 104 105 105 108 101 82 72 68 73 82 75 70 109 125 119 124 113 86 53 47 44 31
567 282 136 195 137 132 98 142 226 231 203 179 174 164 145 125 137 144 136 126 107 97 95 110 117 105 84 97 84 82 84 82 51 77 99 101 117 99 106 93 42 47 33
128 145 138 96 100 118 126 169 206 231 214 188 169 172 147 157 149 142 127 111 98 89 100 122 111 99 87 79 82 73 82 99 90 68 84 26 73 86 103 73 32 21 23
80 61 58 70 115 141 136 158 209 234 213 187 178 180 145 131 135 145 121 99 84 78 85 106 123 110 109 103 94 85 90 45 51 45 77 57 89 93 93 114 47 34 22
49 72 85 93 126 139 144 182 227 248 217 180 172 157 132 125 130 124 116 82 66 66 72 77 81 65 55 53 75 87 70 18 -1 9 79 94 154 107 99 68 47 26 43
90 92 103 105 106 143 161 185 220 262 236 206 169 150 126 136 127 117 109 75 65 65 73 81 103 92 80 70 52 94 100 46 19 -24 54 46 99 83 57 64 45 74 64

GFSMA_con_3kmhel_045.txt.gz
Helicity
81 79 83 115 147 170 188 167 154 142 130 107 84 89 114 106 90 65 66 84 52 72 99 99 82 79 35 17 -5 -24 -7 40 60 75 78 104 110 106 118 130 138 130 116
90 111 148 171 203 211 188 181 166 144 130 99 95 103 110 98 85 75 60 90 113 154 191 195 163 139 95 72 45 18 15 27 16 5 4 12 56 82 72 64 110 159 140
149 176 199 221 231 241 209 177 157 145 124 100 111 113 92 75 107 100 96 96 147 275 280 228 201 200 153 142 111 73 57 57 40 -11 -42 -38 -13 2 15 75 103 113 184
211 253 261 276 238 200 158 153 140 132 114 99 75 49 50 58 87 99 114 118 127 177 227 234 217 186 160 154 135 110 113 108 44 -27 0 -21 -99 -82 -11 31 121 156 124
244 271 262 208 176 168 151 125 121 86 78 52 23 1 7 31 60 82 105 126 139 166 183 198 190 191 188 182 156 117 70 61 39 15 65 51 1 7 -16 -2 40 154 202
214 245 227 198 184 177 152 112 88 87 20 7 3 -7 16 58 58 84 111 96 106 144 173 195 194 216 214 177 145 127 100 67 53 36 28 18 53 98 92 96 143 156 207
216 224 206 191 165 155 105 110 93 38 -10 30 35 37 17 32 47 108 54 74 116 149 164 185 186 186 177 179 159 131 127 116 111 108 84 62 49 47 15 72 108 144 201
185 169 178 167 158 159 157 120 47 23 80 41 43 30 70 91 98 76 101 67 50 72 109 136 150 149 147 148 129 133 140 117 98 85 70 72 68 70 79 63 69 107 130
127 150 167 177 173 152 116 96 73 98 111 76 48 102 116 105 155 133 112 67 35 67 92 117 140 142 128 142 137 117 115 79 74 45 45 61 70 75 82 80 68 55 102
149 180 216 222 194 145 165 169 109 119 93 92 118 79 112 154 141 156 130 106 129 105 121 123 117 114 108 102 98 83 98 86 73 83 78 84 64 66 87 90 83 67 39
230 262 245 212 237 275 286 209 155 194 132 136 87 123 150 189 194 208 201 138 150 131 129 129 131 126 119 109 109 109 138 170 158 137 114 78 72 78 82 88 86 74 47
307 323 344 351 342 281 261 175 286 293 138 140 120 154 197 195 209 214 212 169 155 138 138 139 133 137 136 131 139 176 163 163 155 143 112 94 94 84 71 63 56 51 43
378 390 400 379 364 514 234 296 419 349 227 139 118 148 148 156 202 206 227 201 168 145 153 134 147 150 134 139 126 156 146 132 133 123 106 95 89 84 78 67 59 47 49
519 552 549 571 218 224 399 380 303 200 224 140 127 116 157 148 167 185 188 166 137 146 160 115 136 131 112 92 103 105 100 111 116 102 96 95 94 91 81 72 61 61 61
647 503 668 304 331 422 212 227 111 208 168 127 84 78 83 98 127 145 150 159 169 169 155 128 117 131 87 73 68 68 83 88 89 103 93 86 88 90 79 62 64 65 68
481 433 524 396 305 233 158 189 218 168 131 95 92 91 105 103 117 136 143 145 148 169 198 127 95 86 62 57 47 75 89 78 79 81 84 82 80 85 79 67 58 56 52
537 404 325 249 292 232 212 245 213 164 155 165 130 109 83 114 128 141 153 158 161 165 166 120 102 68 74 67 74 94 83 83 82 64 74 77 69 62 63 66 75 66 56
404 304 317 333 284 277 284 250 160 182 208 217 123 108 81 126 141 139 146 143 155 142 145 125 98 77 85 96 91 87 84 80 87 70 61 52 44 42 60 60 70 83 76
398 299 301 266 339 295 183 135 167 194 181 144 146 141 133 158 141 150 150 147 143 135 128 124 96 99 111 113 94 87 82 78 78 47 61 79 57 43 44 59 55 52 43
475 348 414 501 367 140 141 163 177 158 166 172 183 181 165 143 129 134 137 131 145 136 123 110 106 110 126 100 92 67 46 64 72 82 101 70 56 43 23 41 41 32 34
591 720 632 221 130 153 129 131 141 170 189 208 212 190 177 141 134 134 165 140 154 145 122 107 107 126 110 88 75 74 67 58 60 91 102 74 117 97 87 40 21 8 20
645 178 165 149 132 110 86 84 143 194 234 243 227 212 207 153 150 130 123 129 149 144 121 119 126 128 113 96 94 66 56 56 39 55 92 47 108 96 111 101 29 -5 0
147 148 162 108 85 91 78 91 121 217 250 253 243 239 215 189 189 176 154 149 136 105 106 128 136 128 119 108 86 55 54 83 96 81 74 32 113 78 108 77 8 -17 -18
134 140 120 86 98 104 97 104 129 231 266 252 255 257 202 184 165 166 172 163 132 106 95 103 125 112 111 98 115 89 66 65 78 60 90 44 78 92 103 100 -14 -22 -8
122 150 109 125 145 133 100 113 191 247 274 260 258 245 214 178 124 107 173 153 126 89 72 64 69 65 60 62 75 98 75 64 58 52 100 86 69 45 71 105 31 -14 17
138 126 144 146 144 153 130 135 203 294 290 257 251 249 176 176 131 117 175 158 127 82 81 84 85 78 83 87 69 111 115 84 71 57 49 81 46 78 27 61 75 81 49

GFSMA_con_3kmhel_048.txt.gz
Helicity
64 77 96 111 134 146 160 159 131 101 93 88 94 91 90 69 56 62 79 105 106 98 144 136 113 93 41 14 -3 -4 2 7 -7 1 4 10 32 76 48 68 102 111 118
72 102 120 154 172 176 196 171 136 111 102 90 101 98 92 96 99 93 85 113 155 176 193 180 128 138 112 86 62 36 20 12 19 -2 -24 -5 22 41 23 45 75 102 148
89 128 175 210 228 232 216 175 140 123 99 96 118 130 134 114 86 71 73 104 163 257 223 192 188 172 132 121 94 66 60 74 50 20 -9 18 -32 -79 -60 -33 -12 62 144
119 202 256 254 230 211 178 155 138 133 109 106 105 110 84 64 36 48 65 72 92 136 177 168 144 122 110 112 109 106 76 49 29 -11 -2 52 10 -53 -83 -72 -67 -25 29
182 251 234 232 217 194 163 143 136 118 110 101 77 45 8 10 27 25 63 82 86 93 103 134 159 152 149 145 127 89 69 62 50 40 35 1 -24 -33 -4 4 -15 16 49
214 236 248 242 215 202 174 161 152 149 112 57 -4 -3 -2 18 56 39 76 102 89 112 122 135 131 143 160 149 137 122 110 113 112 92 76 47 23 -6 -27 -53 -56 40 85
218 235 229 222 197 183 164 182 172 124 84 29 19 20 15 21 65 70 65 81 78 53 78 106 114 127 136 176 183 140 106 96 86 77 76 79 73 63 35 9 -5 3 33
206 211 214 206 189 215 211 171 137 130 90 49 32 -12 63 88 66 75 92 98 89 65 53 77 86 107 118 129 124 118 119 114 101 97 84 76 84 87 79 79 85 82 69
201 202 192 216 235 232 184 156 158 142 99 60 84 80 114 113 99 116 109 117 87 73 82 83 84 108 130 145 148 130 117 114 77 49 51 79 85 82 78 83 96 106 108
202 196 233 251 247 217 215 185 144 141 111 43 141 183 154 189 204 194 163 156 152 135 131 115 115 153 196 180 147 116 98 120 99 77 84 94 110 109 98 98 96 97 98
228 234 262 285 279 254 236 245 236 220 180 93 167 231 191 284 227 211 259 236 200 168 159 129 149 194 219 176 136 123 171 165 160 144 122 112 108 95 96 91 77 73 69
256 273 291 315 309 302 297 381 317 90 198 206 261 196 227 239 250 263 297 260 281 230 168 147 172 205 183 166 178 171 152 148 126 114 106 100 91 80 68 64 58 49 48
321 322 325 357 481 496 402 300 202 193 181 232 244 157 190 191 224 271 296 290 261 211 189 142 155 162 168 159 135 125 114 95 87 84 81 81 78 78 79 78 74 61 58
430 487 626 609 554 312 469 255 176 229 280 214 184 193 210 198 193 215 246 253 241 223 216 148 155 163 165 108 72 76 72 83 80 77 81 92 96 90 86 83 87 87 84
586 469 483 450 427 431 162 205 252 250 255 200 174 193 202 179 174 171 189 196 221 240 206 148 143 133 135 109 78 78 78 60 57 69 78 83 88 90 80 69 68 65 59
600 581 480 420 440 156 201 287 313 318 206 139 178 180 164 162 155 169 161 162 170 186 221 163 133 134 130 94 71 73 69 54 67 62 70 75 68 60 61 53 52 45 39
603 488 394 317 290 278 350 315 410 146 117 144 174 179 148 137 131 124 144 175 191 219 228 197 160 136 123 89 76 86 86 98 100 70 68 57 44 40 38 38 37 35 34
425 473 222 316 378 507 324 401 131 130 161 182 165 149 112 159 163 178 199 178 187 202 218 181 167 134 105 86 82 82 87 87 98 69 46 32 42 39 40 44 38 36 35
432 320 356 256 323 385 206 127 158 160 179 172 153 180 167 194 203 233 215 198 204 189 196 204 164 134 94 82 68 81 80 85 82 40 29 40 65 53 42 40 28 16 16
367 460 337 393 384 165 151 186 221 176 143 160 177 211 211 225 221 220 232 209 213 202 204 199 165 131 96 78 79 72 72 76 69 62 35 70 56 51 32 32 19 15 12
415 465 632 288 163 192 167 183 130 153 186 190 218 232 244 232 189 205 256 223 233 217 199 182 153 129 93 81 69 87 83 74 61 39 54 82 100 111 89 54 22 9 8
517 458 183 185 197 150 125 102 131 177 209 234 229 244 264 217 203 203 166 169 211 236 203 201 159 117 95 85 94 89 86 57 51 55 55 65 105 111 90 70 18 -0 -9
279 164 156 164 123 113 86 81 114 189 218 235 248 266 280 273 237 218 188 185 193 167 206 183 149 116 109 99 88 75 63 74 71 84 56 51 104 63 63 80 36 -12 -40
105 117 126 115 112 106 103 122 120 173 217 223 249 265 275 272 241 226 227 215 201 191 165 154 133 108 101 83 92 87 87 102 107 83 68 69 72 46 36 74 17 11 3
130 120 121 117 129 131 126 129 150 196 216 215 232 263 261 271 194 182 238 188 170 157 133 96 65 64 57 48 54 95 81 88 72 56 70 71 88 25 16 34 47 37 49
120 121 117 125 142 155 140 140 165 241 247 238 237 242 193 236 199 206 216 208 186 143 149 125 105 81 67 68 52 92 102 106 99 67 84 62 53 58 -24 17 46 52 81

GFSMA_con_3kmhel_054.txt.gz
Helicity
42 35 46 34 58 63 57 87 74 41 27 29 29 36 44 43 35 38 71 64 57 82 96 87 86 97 80 75 72 58 40 46 36 31 41 30 51 33 33 57 69 93 107
40 43 44 66 80 73 89 80 64 43 42 41 50 54 50 40 45 36 62 98 145 151 132 127 103 117 111 98 84 78 78 91 65 48 49 57 65 37 16 8 9 48 76
30 49 75 81 81 98 104 94 72 54 57 70 70 55 44 43 58 54 51 74 106 185 211 193 183 165 133 120 104 95 100 92 84 72 56 58 36 4 2 20 7 -5 -6
43 52 60 73 102 99 109 119 63 78 92 88 79 69 61 64 67 55 52 56 76 94 112 140 143 129 119 111 110 114 115 118 111 93 81 71 32 10 -4 5 -17 -19 1
34 45 50 86 129 142 137 113 99 103 107 95 90 82 85 78 65 58 38 39 107 97 64 193 153 141 149 146 147 142 131 125 126 128 128 113 101 96 89 63 30 9 -17
24 33 57 113 141 141 152 139 141 134 123 116 104 93 83 56 53 68 44 25 94 76 64 97 129 125 150 142 138 135 109 110 107 118 134 123 126 105 92 88 79 59 45
40 50 78 120 145 149 177 182 163 161 152 127 98 86 66 43 26 5 79 78 103 64 95 100 106 118 110 125 98 100 102 117 132 137 142 142 142 115 99 80 61 47 57
67 89 102 116 134 190 197 192 174 173 161 133 139 98 59 79 88 55 64 95 97 79 101 107 114 93 81 81 174 183 153 157 131 123 138 142 132 122 108 83 81 84 77
85 85 107 125 165 216 233 197 180 158 164 167 133 108 82 89 128 111 132 85 117 104 115 136 115 124 111 103 99 94 238 174 166 156 149 156 151 133 118 102 84 67 69
93 89 119 162 196 221 224 201 191 182 190 183 183 78 61 78 103 140 190 127 135 122 129 142 145 128 115 115 156 198 254 207 191 188 175 149 124 101 82 69 69 69 65
126 142 165 205 214 213 212 207 209 193 300 290 117 163 49 69 95 126 133 158 186 173 165 167 147 122 105 129 130 244 292 231 203 188 147 104 86 72 59 56 52 53 56
150 174 202 216 197 190 213 229 280 317 274 194 137 73 67 122 150 175 155 147 178 147 156 154 119 101 124 144 192 268 224 173 155 129 96 87 78 69 65 60 57 54 53
202 210 209 149 160 193 310 375 292 279 211 220 112 72 127 144 188 179 143 142 170 135 117 125 152 140 138 158 142 244 143 129 106 100 94 79 77 77 74 66 60 60 66
255 170 180 179 267 255 317 308 314 295 189 170 88 102 116 165 164 133 152 160 158 126 119 108 167 163 154 149 170 196 108 159 124 99 70 64 63 60 56 62 75 88 90
258 268 269 324 170 274 386 500 441 295 183 133 143 78 133 145 138 138 114 107 135 148 130 131 186 152 170 154 148 154 121 99 132 75 61 60 51 49 57 69 76 78 77
298 290 296 184 214 416 424 362 350 368 266 169 61 117 131 139 124 115 112 104 125 139 154 139 165 146 184 154 135 154 110 92 65 76 60 49 40 47 59 59 55 51 52
232 232 209 349 372 482 422 457 259 236 170 54 112 122 132 90 119 112 113 121 132 142 156 135 146 109 195 169 117 117 109 105 85 79 87 57 44 51 47 36 37 35 30
187 174 312 379 367 387 357 276 312 135 52 74 97 107 95 108 108 110 121 128 142 144 171 146 136 143 137 173 145 126 108 103 80 65 75 59 49 46 34 33 25 19 18
193 232 270 263 305 368 270 189 136 61 60 82 96 103 103 108 116 125 133 154 165 169 172 182 150 140 138 158 144 125 102 89 74 59 65 64 69 60 46 36 9 5 7
195 191 273 307 350 324 295 123 50 37 73 101 107 95 102 105 115 128 143 156 195 187 165 195 168 146 145 140 173 129 99 96 71 66 60 91 98 75 90 65 39 3 -3
186 306 305 338 278 242 128 98 98 98 96 90 83 101 111 119 136 145 170 167 190 210 225 228 190 184 171 151 127 139 116 89 66 57 60 77 77 73 73 62 63 45 17
281 352 252 239 156 121 131 103 85 88 80 90 112 107 125 163 182 185 161 186 165 187 214 197 211 218 145 120 138 123 101 87 66 59 62 60 64 60 56 57 72 41 8
254 178 152 139 113 112 72 84 93 94 107 120 132 162 174 174 178 208 197 209 211 263 264 140 164 169 121 115 114 109 86 82 62 56 53 55 53 60 67 53 53 23 20
76 86 91 72 75 85 122 97 107 118 135 141 156 178 189 183 183 193 212 150 196 197 194 198 147 100 110 103 112 101 92 70 53 48 47 54 45 58 61 34 30 48 73
95 93 104 109 96 84 127 112 127 153 172 177 191 195 204 212 214 244 204 174 169 146 178 250 176 213 201 200 145 109 98 75 53 46 49 54 50 36 57 35 48 83 51
118 106 101 97 109 106 131 157 179 197 202 223 216 232 239 229 230 198 204 207 195 160 135 147 161 135 134 133 129 114 90 79 56 47 54 61 48 30 45 48 41 21 35

GFSMA_con_3kmhel_057.txt.gz
Helicity
12 11 -17 27 11 40 34 34 55 46 36 27 32 31 26 22 22 40 78 81 63 88 92 100 99 97 85 84 76 67 58 64 58 47 51 40 53 34 26 46 51 89 105
36 8 47 16 43 47 57 60 56 38 31 31 41 32 33 32 38 20 93 102 121 121 112 128 108 121 115 94 80 65 65 78 74 75 72 60 55 51 44 20 17 31 60
-5 15 34 44 64 54 66 60 74 52 43 45 59 46 43 39 55 44 30 134 103 180 209 201 181 178 155 127 102 84 81 97 89 82 75 63 61 37 33 13 17 1 16
-22 33 48 58 57 74 73 76 71 47 58 62 80 77 72 66 75 73 80 57 78 177 158 185 168 148 140 124 117 101 99 105 100 80 74 93 84 86 94 86 57 20 3
39 45 44 31 72 71 110 97 72 78 92 79 81 76 78 84 84 82 96 75 103 99 158 224 176 143 149 127 123 117 111 103 98 95 89 100 101 90 100 92 92 87 63
30 30 15 35 89 109 99 100 126 112 96 102 92 104 100 95 75 53 52 56 96 111 94 80 132 108 128 119 123 118 105 98 80 84 96 118 117 124 123 98 83 76 84
1 44 -33 61 104 86 130 131 158 154 124 128 103 84 78 149 86 23 55 47 85 116 105 122 102 104 169 141 105 128 123 113 80 82 100 109 111 119 107 91 106 93 75
85 47 19 77 109 134 146 163 167 166 127 140 113 166 124 119 154 88 48 79 105 100 122 129 139 146 135 121 204 139 158 161 111 81 86 96 116 136 155 146 129 109 89
145 131 90 120 112 131 167 141 163 172 156 168 117 171 223 207 185 136 142 133 122 125 136 131 148 126 134 117 101 120 282 250 173 138 129 147 161 162 149 129 119 108 92
138 210 85 94 79 138 220 181 178 150 141 203 187 190 247 201 129 176 156 163 159 127 115 109 123 134 121 167 164 218 270 256 211 154 146 145 144 135 123 105 93 78 66
125 156 168 156 143 240 217 193 158 159 174 204 386 255 171 132 58 76 98 114 151 176 154 214 188 205 183 148 130 310 306 271 202 169 146 136 126 119 104 86 72 61 51
146 118 118 215 250 248 179 154 160 168 280 323 261 248 197 156 126 144 94 146 172 178 161 189 226 155 145 152 180 297 266 193 160 135 123 111 111 102 82 71 64 59 57
185 182 170 220 248 226 134 163 276 288 269 279 275 291 224 207 81 95 130 151 183 160 144 132 143 175 188 196 175 258 233 202 127 122 92 103 91 80 69 63 59 57 60
208 274 263 251 221 171 282 325 202 240 309 346 303 234 282 98 83 101 136 169 165 170 146 131 135 162 198 181 241 295 219 176 178 136 149 105 80 68 60 56 59 57 57
253 204 233 262 358 477 210 209 369 323 329 252 287 287 136 101 88 130 126 131 188 201 188 175 196 137 170 159 180 259 235 180 221 171 110 84 65 60 56 52 47 53 58
209 211 354 374 376 218 206 330 370 410 383 325 158 152 88 49 94 107 131 145 143 173 210 193 201 154 143 136 207 244 210 160 128 114 105 101 76 60 46 37 42 46 50
185 206 274 316 233 319 395 435 374 330 278 185 111 105 19 68 109 157 179 153 148 180 215 188 163 140 143 152 163 196 189 167 151 122 137 143 104 75 49 40 37 42 48
218 230 257 233 306 413 291 298 292 254 215 115 86 44 59 96 140 141 154 146 168 166 202 207 186 191 174 142 158 191 233 177 137 97 103 142 124 78 53 39 40 40 41
237 270 295 314 244 296 363 277 187 184 153 94 54 76 108 140 149 150 148 163 181 181 223 249 242 228 212 154 152 170 210 187 147 80 83 117 83 55 67 71 59 47 37
278 284 262 231 283 276 148 200 194 187 122 101 116 128 114 103 110 139 156 161 190 213 212 221 260 234 158 207 158 180 203 158 134 156 79 73 63 78 68 75 105 76 70
240 235 241 223 200 194 188 183 138 130 143 99 100 75 85 102 124 156 172 187 182 226 237 234 245 247 254 209 207 184 168 160 158 148 86 72 69 82 64 62 60 87 92
203 183 190 199 224 145 158 151 132 124 102 103 102 94 104 126 150 184 225 235 222 241 229 199 211 240 212 206 191 162 151 177 161 123 86 77 69 62 64 64 89 78 85
162 176 176 173 148 81 99 92 130 122 115 102 100 118 132 151 170 185 202 227 255 282 281 223 192 166 171 161 148 152 117 163 142 107 109 76 66 63 61 55 63 69 67
131 146 137 104 76 106 119 124 144 115 110 109 122 134 161 179 194 208 230 243 239 154 211 234 192 174 151 108 144 121 145 168 148 97 71 77 59 60 64 65 30 60 106
106 106 123 123 118 122 175 193 153 150 153 152 152 151 172 203 205 218 213 217 211 202 138 162 210 220 263 216 203 182 173 157 134 85 71 74 60 62 62 56 58 99 77
148 139 134 123 140 109 227 208 175 169 165 174 184 178 186 199 187 196 237 240 193 146 93 81 163 165 221 209 228 179 153 146 133 101 65 74 62 62 51 45 68 65 79

GFSMA_con_3kmhel_060.txt.gz
Helicity
10 34 14 6 -7 -14 1 33 45 33 33 29 36 29 31 29 28 59 45 75 73 77 74 92 92 85 84 82 80 76 75 77 69 69 72 61 38 39 28 31 48 84 103
15 8 -19 -2 -17 66 37 51 46 30 12 47 40 33 45 33 16 71 56 80 114 107 114 114 111 103 97 90 86 78 82 86 82 78 79 71 74 55 32 15 9 -3 20
7 25 37 7 29 54 72 48 89 41 56 22 44 29 46 33 48 74 117 101 126 170 175 173 184 194 181 147 116 92 91 101 91 82 76 68 73 65 67 69 65 51 31
31 22 -2 -2 98 77 84 83 86 54 39 55 63 42 78 75 84 70 62 137 137 151 175 215 189 178 170 152 134 114 120 113 107 97 85 70 74 78 64 64 59 56 58
-28 -25 5 83 87 84 106 79 85 41 80 87 106 96 111 105 87 66 115 78 149 210 221 190 170 143 145 135 137 131 131 96 109 106 94 93 102 95 92 87 76 61 48
-21 60 63 69 92 108 147 123 99 98 126 107 74 140 135 111 112 123 119 112 113 126 157 201 169 160 155 149 131 120 116 99 98 99 79 85 86 85 78 77 64 63 75
-5 28 70 42 132 169 184 121 136 151 117 165 184 142 151 158 146 145 137 124 103 160 156 126 169 172 213 163 121 154 127 104 74 80 76 78 75 75 75 77 85 87 93
3 26 49 77 134 179 136 184 167 178 153 182 190 135 195 247 237 174 152 161 131 130 150 198 185 190 203 187 172 139 123 138 150 126 112 97 97 100 100 96 94 89 86
82 87 140 182 176 146 152 201 221 191 189 207 191 210 240 254 273 200 152 123 191 199 151 157 154 198 184 166 166 208 272 247 208 194 141 132 121 108 106 106 103 99 97
121 97 147 159 290 284 233 219 229 163 199 240 308 206 284 280 289 210 246 182 178 235 188 159 153 170 204 222 269 280 309 303 256 204 185 144 108 94 100 97 94 95 99
147 131 159 195 247 301 259 341 311 227 129 133 300 393 308 262 165 187 248 228 209 196 174 200 200 268 329 274 274 302 309 272 222 186 158 126 100 106 108 101 99 99 90
191 138 155 187 231 272 347 376 247 294 282 164 183 365 310 275 264 309 302 293 220 171 149 213 257 297 300 274 241 282 256 259 209 162 136 114 111 110 106 101 92 80 69
207 176 169 171 233 311 344 349 354 338 324 219 235 217 286 275 264 222 268 227 235 174 158 179 202 217 248 240 339 370 294 267 192 133 117 104 96 78 88 85 74 61 51
175 225 173 266 317 351 348 360 548 416 306 239 267 251 328 256 213 171 207 251 329 226 177 194 205 198 200 260 317 319 313 249 214 190 157 120 81 77 85 77 60 46 41
354 334 343 357 352 328 402 395 321 262 298 354 334 282 225 211 155 176 230 193 218 211 208 221 199 198 205 242 273 344 332 295 255 262 191 119 89 83 77 70 46 40 36
374 362 314 302 309 336 373 312 318 389 378 302 247 238 208 196 86 80 119 188 229 228 217 212 197 198 198 219 249 287 292 276 263 240 203 139 120 85 66 54 34 29 30
336 297 279 312 292 297 288 302 313 315 325 263 183 211 155 108 61 139 173 210 219 231 252 240 226 208 217 224 243 251 265 293 271 201 192 176 162 110 102 73 51 27 19
287 297 293 308 340 369 394 340 293 255 236 198 151 164 162 149 128 159 187 174 176 198 241 225 242 262 253 240 258 290 302 260 263 296 228 181 170 149 128 97 69 49 40
303 288 303 338 365 368 325 282 262 250 176 168 192 179 121 134 162 152 160 179 204 206 246 271 290 312 303 304 303 313 323 321 226 217 162 164 190 152 105 107 97 63 70
325 329 309 291 311 250 238 241 216 161 145 163 143 117 127 96 113 126 135 162 183 233 242 262 288 305 324 298 306 323 334 354 299 235 211 229 179 135 99 96 81 83 116
311 278 283 286 201 262 227 239 187 197 189 156 119 105 101 94 90 124 164 202 221 229 245 252 267 269 284 303 291 287 315 271 275 234 230 249 210 160 153 90 65 84 72
253 248 252 231 257 239 214 184 166 162 138 114 111 101 98 100 104 100 116 154 188 250 294 343 340 320 280 211 229 271 288 285 256 160 219 210 211 178 117 81 73 69 58
245 250 224 208 188 183 163 124 134 123 109 110 109 115 114 118 125 135 159 206 218 225 296 314 294 265 214 189 185 251 259 239 190 131 247 213 189 149 121 85 73 66 43
234 192 174 155 151 207 215 196 131 87 131 144 143 143 159 172 182 214 208 208 222 245 261 277 272 204 160 162 171 234 195 156 188 242 201 159 140 134 116 90 72 36 62
169 141 138 168 299 293 249 195 178 182 167 152 140 154 165 148 158 193 197 210 223 240 219 180 167 124 54 106 241 249 289 235 223 218 157 139 122 125 121 86 66 47 62
226 239 252 246 237 240 227 196 155 140 173 155 137 114 117 141 157 166 188 210 224 203 179 145 113 40 51 135 178 245 296 232 281 189 145 151 128 153 100 67 95 64 71

GFSMA_con_3kmhel_063.txt.gz
Helicity
35 -4 6 19 22 3 3 -8 18 6 19 32 45 47 55 56 41 16 14 73 68 70 64 71 71 84 90 83 83 76 74 73 74 71 59 50 47 33 19 4 -9 15 66
-24 -27 -30 19 5 -4 -10 16 20 8 19 40 48 43 52 75 36 50 34 23 65 88 96 98 96 90 79 76 75 64 66 71 75 76 75 66 60 56 58 57 51 44 23
-68 -51 11 10 5 -4 7 56 25 30 38 39 27 34 44 67 89 57 38 40 63 104 127 129 97 99 116 118 109 78 77 93 96 90 83 79 72 68 63 60 59 66 66
-60 -25 11 24 0 80 92 77 75 59 40 54 23 32 44 65 68 91 65 72 101 124 144 168 156 144 138 122 116 107 92 100 112 111 114 106 96 99 84 73 64 61 60
-68 40 33 6 55 114 107 102 71 58 51 73 81 72 89 92 74 73 105 106 109 152 158 167 146 125 117 114 109 113 88 91 109 125 132 114 111 105 92 79 74 62 52
-29 -2 23 11 93 115 118 117 87 85 67 125 130 138 128 117 79 101 109 121 145 179 179 161 144 133 129 132 136 133 95 81 90 112 106 103 106 98 86 79 70 56 51
-21 26 49 85 87 121 148 149 137 107 109 166 186 166 157 128 131 152 143 128 138 138 167 154 151 153 154 161 158 138 92 89 84 77 95 101 95 83 81 70 75 63 56
27 39 73 69 114 181 188 184 196 206 152 159 196 236 250 250 191 194 188 166 150 173 164 187 169 184 204 191 166 136 102 100 99 149 132 127 107 100 93 90 87 79 78
57 73 51 41 100 182 269 258 205 225 193 168 158 261 254 285 290 203 157 191 180 210 269 255 222 231 223 202 175 153 156 171 173 175 160 139 124 105 95 94 97 90 87
110 108 110 102 181 227 242 230 258 271 301 319 186 233 328 257 256 232 218 142 193 244 230 234 237 229 194 206 262 259 275 265 222 182 156 142 119 93 88 97 100 97 98
139 137 140 170 235 252 259 268 297 312 410 363 261 352 434 204 129 160 186 177 223 199 217 255 238 224 240 332 368 334 315 293 244 187 154 138 106 88 69 100 105 106 105
186 170 169 200 245 264 245 293 345 400 402 358 460 382 411 228 211 183 272 230 212 190 268 312 233 218 273 365 385 340 312 286 235 176 155 129 104 57 28 57 90 99 102
228 195 212 191 198 250 248 308 353 365 400 430 441 411 296 262 265 244 262 241 270 216 232 195 173 207 248 264 332 328 295 296 265 231 204 161 107 44 11 16 52 76 91
263 248 257 186 201 212 275 317 334 396 399 333 262 253 273 260 237 233 274 245 278 226 189 168 173 207 217 219 270 291 332 294 314 270 225 170 99 56 25 11 24 51 70
206 266 263 237 193 252 298 308 324 373 279 213 268 237 222 233 181 200 200 238 227 200 195 184 181 122 135 185 200 308 360 286 277 260 241 180 120 84 73 33 13 35 47
154 304 330 324 330 311 283 315 324 289 290 261 229 196 159 211 165 158 152 135 130 188 225 226 185 153 136 134 146 252 276 258 235 242 239 223 191 127 85 89 50 38 39
277 372 343 328 299 300 281 292 289 256 282 291 205 236 247 177 207 180 168 151 186 210 229 221 217 194 215 197 182 230 251 328 377 344 322 233 227 128 140 131 99 45 29
289 316 318 293 297 301 298 317 319 283 326 265 185 252 174 199 181 153 149 167 169 156 201 193 245 254 245 226 261 266 286 330 353 261 194 192 246 184 200 167 145 90 46
302 300 298 315 333 335 312 330 232 213 230 273 235 150 144 185 152 140 136 144 151 155 202 249 231 286 285 285 263 281 292 215 239 298 262 169 233 174 185 177 128 120 87
298 303 297 319 331 337 307 292 189 302 289 252 189 153 151 143 148 140 135 144 155 213 237 259 286 303 314 283 337 342 331 356 321 303 309 358 209 185 164 158 141 120 71
303 311 350 366 337 325 312 249 294 274 248 216 167 139 134 130 121 128 164 178 202 212 239 263 285 290 357 374 366 313 327 284 257 314 300 301 292 227 206 201 186 117 62
342 348 351 337 334 303 266 264 275 245 203 179 148 141 124 123 180 223 202 191 200 218 234 265 292 335 332 376 376 350 244 235 200 236 332 191 241 166 197 196 128 89 108
340 322 296 293 263 268 245 228 203 201 174 157 177 190 177 169 155 139 130 116 126 156 177 228 248 272 300 319 303 282 260 166 196 224 295 187 183 184 157 131 96 115 92
288 255 235 252 302 240 241 207 190 199 200 196 188 182 168 145 142 152 137 137 148 159 175 213 261 267 284 280 249 235 171 125 191 224 199 177 196 163 111 109 96 97 74
205 191 227 331 329 326 295 269 234 209 198 186 159 153 168 160 159 178 155 146 144 141 154 120 122 129 141 143 145 176 164 142 206 249 216 224 181 148 103 124 122 89 64
214 333 352 347 330 304 250 224 207 165 191 167 137 136 150 154 155 155 158 159 154 143 159 162 167 157 125 125 89 118 129 145 207 199 201 185 159 143 128 129 132 97 72

GFSMA_con_3kmhel_069.txt.gz
Helicity
111 84 69 73 84 8 110 82 71 61 86 63 37 24 10 2 -25 -34 -45 -15 8 15 18 22 31 37 38 43 35 39 44 49 55 55 55 52 50 58 64 60 56 58 73
73 70 51 60 19 62 66 24 28 51 52 49 44 26 17 5 -8 -10 -31 -25 13 22 15 15 34 49 44 52 51 48 53 54 56 64 71 76 74 65 68 75 76 74 77
78 37 44 45 4 77 46 55 49 39 35 43 39 27 26 10 14 8 -5 -4 13 38 35 23 43 45 42 47 54 44 63 75 59 65 82 99 101 102 86 84 89 86 75
86 66 37 -5 50 80 42 38 38 38 26 21 37 32 33 27 29 34 37 45 51 54 40 40 47 59 58 64 66 63 72 77 72 76 100 112 118 123 110 95 85 80 68
65 58 16 19 88 68 32 45 53 58 25 12 4 13 28 48 52 70 69 80 73 69 63 40 62 93 102 78 64 63 70 84 83 89 123 141 145 127 115 106 102 98 101
100 42 21 67 62 46 60 53 70 65 52 53 39 24 30 52 70 83 98 101 84 75 77 84 110 132 108 91 70 65 65 73 92 101 120 132 122 122 116 118 121 111 94
66 17 55 70 82 75 53 76 89 75 92 94 97 74 63 63 85 124 153 106 113 95 106 111 126 143 117 108 84 66 60 67 84 96 98 113 109 118 110 98 89 69 55
179 29 82 53 58 84 100 125 138 129 106 137 132 126 113 131 161 174 183 187 159 178 146 116 135 140 133 142 133 78 73 70 76 89 91 106 91 100 73 45 39 28 17
10 -54 -24 20 52 116 111 117 126 137 136 144 162 174 171 171 181 239 215 250 250 234 165 145 146 148 172 177 174 146 114 115 99 93 89 105 93 79 36 15 15 12 5
-75 -90 -37 14 104 28 21 73 126 157 194 182 192 203 271 310 185 212 174 197 300 270 208 134 148 161 191 222 191 201 195 160 169 127 99 118 96 63 36 17 12 11 14
-144 -79 -51 -35 -26 14 33 49 97 139 194 231 276 248 256 272 346 326 256 266 310 256 184 189 156 192 215 237 235 224 203 211 230 190 153 143 129 98 60 41 53 41 34
-151 -85 -53 -37 22 57 86 133 133 199 226 264 278 288 298 256 278 378 318 246 270 164 137 160 158 173 178 225 246 210 226 203 203 226 227 196 166 144 109 86 90 68 53
-189 -108 -47 72 -12 40 95 157 184 210 263 255 260 277 299 282 288 226 220 200 205 182 178 181 171 198 197 223 184 146 180 177 188 225 249 229 219 170 140 129 123 99 90
-93 -70 51 71 120 190 207 143 115 193 220 220 241 272 261 243 188 194 190 248 228 244 211 168 186 187 164 168 166 148 188 175 187 196 212 240 247 225 210 176 159 150 157
16 41 84 107 144 174 191 143 215 201 231 241 226 224 209 195 183 171 224 221 214 212 215 183 199 141 148 165 186 206 189 170 169 199 221 229 224 227 244 235 215 209 211
48 94 67 29 65 123 209 210 227 234 233 247 236 262 231 208 195 203 211 198 196 234 269 238 208 151 135 133 127 137 155 153 175 193 212 216 213 223 251 257 285 262 194
177 176 159 154 26 129 177 178 232 235 249 266 260 245 227 276 188 233 257 255 171 254 259 246 209 200 178 126 118 129 152 196 226 187 191 207 220 228 225 278 288 231 288
200 113 -144 12 39 100 136 222 305 300 303 272 282 303 326 327 288 241 246 247 242 202 217 222 198 187 164 135 136 142 133 146 194 184 187 200 192 215 206 198 266 308 366
111 132 83 13 36 124 215 295 324 296 315 331 289 255 332 247 222 234 331 240 246 230 241 233 201 174 145 140 140 152 168 184 192 165 170 200 234 229 225 208 191 285 247
215 181 151 190 189 219 316 346 320 333 380 359 325 295 318 228 271 307 292 215 253 226 220 220 191 165 156 141 149 170 160 190 206 198 204 224 238 240 167 116 166 199 237
198 155 154 215 270 307 338 369 378 420 438 376 254 358 408 386 321 363 302 267 233 221 208 194 173 171 156 159 160 174 210 206 208 228 217 227 227 240 237 137 166 169 161
288 264 272 302 345 364 364 387 419 453 440 325 431 454 463 356 374 346 288 241 209 217 198 182 179 175 163 160 185 196 213 237 253 178 212 224 200 173 185 208 206 215 180
394 369 367 382 404 376 354 393 439 423 433 440 409 417 371 325 286 249 234 221 198 172 158 180 184 170 168 164 185 184 203 226 224 215 189 205 154 186 129 148 123 150 114
428 402 404 418 416 386 419 458 498 489 482 438 383 354 322 286 265 243 259 249 213 200 200 186 163 144 149 128 134 159 184 205 240 215 164 211 156 170 136 130 113 68 37
476 448 440 428 445 449 457 462 476 461 429 394 347 313 284 282 259 234 242 240 215 191 166 138 115 89 71 71 103 170 202 255 247 210 207 187 155 123 140 163 101 41 70
467 480 483 463 469 469 439 423 421 412 394 371 329 298 277 280 256 238 232 234 202 164 145 132 123 110 101 109 87 181 202 228 246 217 164 169 114 159 111 83 150 79 120

GFSMA_con_3kmhel_072.txt.gz
Helicity
151 176 136 107 131 79 84 72 86 76 62 36 19 22 2 -11 -22 -25 -41 -23 -13 -1 3 25 12 5 12 20 19 23 28 43 65 72 63 62 68 69 73 69 63 71 81
123 175 102 143 82 68 69 22 76 74 39 28 27 28 14 -9 -14 -25 -47 -41 -8 4 10 13 31 23 22 27 25 26 35 39 63 73 71 74 86 82 80 81 81 81 78
154 96 172 61 64 71 -15 129 89 61 49 46 41 16 7 -1 5 -4 -22 -22 -9 13 12 8 23 27 32 39 29 24 30 43 57 72 77 82 98 101 91 84 86 89 80
216 102 33 45 62 11 6 81 48 50 60 43 28 12 7 23 18 16 11 1 5 21 29 29 19 24 34 24 43 32 46 54 59 63 71 77 99 110 104 98 102 94 88
103 40 52 31 31 5 17 84 46 51 41 38 26 24 24 27 18 19 22 27 29 43 51 38 35 25 33 38 32 38 38 50 58 64 74 80 96 103 104 103 97 97 119
60 28 39 54 32 22 59 86 46 39 46 38 38 26 24 28 31 38 42 62 67 65 74 85 71 54 58 87 40 23 27 49 64 65 75 76 88 96 89 77 78 97 113
125 109 66 39 42 42 60 60 58 52 61 66 83 59 40 34 44 61 86 102 102 111 107 121 116 115 96 83 61 28 30 40 51 66 68 60 67 78 69 47 48 75 84
108 126 48 36 37 73 64 69 77 88 68 103 95 88 68 73 112 121 143 147 139 145 159 134 141 150 130 103 104 67 52 46 42 54 70 66 101 81 48 30 43 50 38
122 47 50 62 66 80 80 69 102 107 105 98 115 108 97 88 82 98 135 170 174 173 166 201 157 150 142 117 112 111 86 81 59 47 59 87 134 123 84 61 55 31 7
83 89 69 57 56 56 35 100 99 141 153 142 150 153 182 181 139 102 99 127 143 152 204 182 183 144 154 155 134 130 101 114 112 88 79 89 161 142 87 65 64 43 15
-40 -61 -41 -17 26 36 21 -43 124 132 141 182 230 213 239 225 221 215 145 171 160 180 151 160 171 118 160 163 164 165 160 148 175 143 136 117 111 136 134 104 74 66 43
-84 -16 -7 -57 4 43 14 67 84 141 158 160 232 282 296 212 234 263 243 149 202 147 111 146 126 119 124 128 147 182 193 213 154 133 139 131 119 127 96 80 85 83 80
-151 -60 -37 -26 13 59 103 137 147 146 166 158 219 261 287 270 265 251 206 167 164 160 173 151 160 150 166 150 167 185 160 151 146 137 136 135 138 140 108 80 77 70 78
-99 -140 -156 -36 11 86 104 135 184 147 122 119 142 209 221 260 286 250 200 249 176 154 184 176 150 141 169 143 145 181 165 156 161 158 145 134 141 152 157 149 115 93 92
-176 -192 -152 -106 -14 70 44 72 68 107 92 41 138 201 224 224 231 229 233 230 192 163 153 177 148 167 149 134 172 156 147 144 130 124 140 150 157 168 174 178 175 145 106
-18 -10 -35 8 31 77 68 75 79 166 118 230 228 195 217 218 218 290 228 276 211 212 223 224 160 161 108 135 132 145 124 114 108 121 132 142 149 156 161 165 170 170 141
43 46 65 62 58 124 145 119 109 126 154 236 233 206 211 250 252 271 263 300 225 187 242 252 223 186 138 133 122 113 103 107 113 92 100 109 127 138 149 165 184 184 180
130 115 143 97 109 227 277 124 87 170 187 222 255 272 252 269 276 303 293 311 275 271 265 236 216 192 156 138 125 117 103 93 99 97 102 112 121 134 146 166 184 191 188
172 140 177 88 160 142 61 36 112 186 206 266 301 326 354 273 340 350 270 351 285 286 238 254 224 187 149 135 120 97 98 112 107 105 112 121 126 141 146 146 159 182 195
217 156 72 158 202 155 116 129 161 202 294 315 312 360 333 356 371 351 329 325 273 308 256 249 213 177 154 126 106 108 100 89 100 101 103 108 103 136 129 137 135 122 114
184 122 55 134 155 120 156 207 256 326 369 390 362 432 485 455 390 323 318 311 246 255 252 248 211 190 162 153 140 109 122 110 112 121 127 132 169 168 159 136 128 103 94
228 229 205 211 181 179 184 235 307 341 361 415 541 539 498 510 441 454 428 315 253 248 250 230 208 199 171 143 118 132 128 121 132 154 155 152 167 193 202 180 112 119 89
317 284 280 285 223 223 229 281 335 387 448 514 503 527 439 428 421 317 366 276 265 233 190 187 205 186 164 136 131 122 126 137 154 152 126 189 175 209 191 181 123 121 56
318 304 302 322 349 309 340 420 488 517 548 520 478 437 441 408 344 280 284 272 244 208 205 194 166 144 128 125 132 128 117 128 149 144 161 243 179 204 160 155 120 113 34
323 301 332 357 393 412 442 464 516 520 529 517 485 448 410 390 328 278 274 261 251 256 220 214 196 163 136 122 123 151 139 163 154 157 190 244 202 183 140 122 91 33 21
381 415 464 431 426 485 438 422 435 467 497 473 449 436 394 353 294 255 278 274 305 280 236 213 188 180 162 135 131 159 164 176 176 191 182 247 192 186 159 108 39 79 65

GFSMA_con_3kmhel_075.txt.gz
Helicity
243 215 193 138 105 32 7 42 24 54 12 68 39 22 -6 -6 -10 -15 -28 -25 0 13 0 3 4 0 4 10 10 6 5 13 20 25 30 38 49 54 55 52 67 83 89
239 210 131 123 113 33 12 37 21 31 13 65 41 18 4 -7 -15 -10 -10 -20 -17 -20 12 9 6 5 5 9 10 15 12 16 31 40 40 44 51 50 54 66 78 76 67
202 122 74 61 89 66 80 67 53 -35 73 66 38 18 14 5 -1 -5 -10 -8 -8 -16 -10 10 20 10 10 16 17 9 8 14 23 38 43 46 58 55 49 53 65 70 76
113 73 63 43 88 40 85 85 -29 61 70 51 31 19 19 17 9 2 3 4 -5 -3 -4 0 35 26 25 29 27 10 14 20 21 30 40 41 50 49 46 51 58 65 69
90 176 71 108 132 109 57 27 4 68 43 28 25 26 28 21 14 13 8 8 6 7 19 37 32 42 36 15 15 16 15 24 19 23 47 42 35 34 35 39 45 58 53
138 84 180 217 79 67 17 -5 24 39 23 30 35 32 23 17 16 16 20 22 16 26 35 38 43 43 42 36 35 21 19 20 21 17 48 55 42 46 35 35 46 37 30
162 230 219 35 29 48 21 6 43 46 45 47 63 47 30 17 18 25 43 50 57 66 61 71 93 71 66 62 90 44 22 23 29 38 48 78 70 61 46 41 33 33 21
105 178 63 48 64 62 48 21 58 50 56 52 60 75 50 40 47 60 82 94 116 97 120 106 113 109 119 102 106 74 38 28 44 54 70 95 89 102 71 55 56 50 28
111 66 54 53 46 63 44 39 53 58 62 71 72 74 70 55 58 72 57 108 120 101 113 114 117 116 119 164 146 132 78 63 51 47 56 76 126 126 166 116 91 91 62
115 132 118 96 44 47 36 53 57 76 88 84 92 84 92 107 71 56 70 81 112 105 122 167 184 151 105 138 155 111 105 102 77 82 82 88 78 104 113 202 145 101 78
157 88 51 78 -11 6 25 62 93 92 83 118 151 113 122 130 132 114 81 92 120 87 96 125 153 137 99 136 134 129 98 85 108 119 126 113 85 78 78 125 114 124 122
47 1 -34 -53 -28 38 23 17 60 78 104 112 120 122 159 126 111 154 145 143 149 117 100 121 111 126 105 112 124 120 132 111 155 191 152 122 104 81 70 73 73 74 82
7 -15 -8 -3 10 57 51 59 54 52 88 103 111 118 120 124 201 251 245 196 168 187 150 119 179 139 144 146 157 120 154 157 183 204 154 139 124 112 104 96 84 60 65
42 10 -7 -19 -21 -23 1 -2 24 46 70 95 100 104 115 134 176 212 257 275 203 183 180 178 144 166 177 183 176 154 185 188 209 182 159 133 119 127 132 132 126 116 117
-24 -25 -25 -50 -57 -63 -59 -15 38 42 59 81 74 80 157 153 179 226 244 237 248 256 160 184 147 152 180 214 203 193 183 229 189 151 115 111 108 115 123 122 122 127 128
-92 -90 -61 -24 -22 -54 -43 0 46 45 62 100 109 171 160 160 180 188 221 216 202 239 207 190 167 193 248 177 219 183 203 171 160 137 126 119 118 118 127 130 137 151 165
-7 17 26 18 19 65 78 71 55 57 44 69 145 85 124 210 209 208 228 261 218 276 233 297 250 223 176 190 172 173 179 153 136 125 122 109 106 116 119 123 137 142 153
74 59 67 71 103 176 229 159 160 201 185 103 167 92 166 236 255 260 291 259 252 297 316 273 280 190 159 213 220 184 169 141 139 116 113 98 94 106 112 113 128 146 164
63 99 108 122 128 131 169 166 161 189 225 128 97 159 221 286 307 311 338 273 340 334 331 310 288 174 184 184 222 191 168 158 131 105 85 80 97 92 86 112 131 151 146
136 63 117 104 179 148 142 126 171 147 46 57 137 214 274 291 387 340 404 406 367 375 293 318 295 199 168 206 215 212 195 147 120 99 95 72 74 81 60 82 118 138 135
183 141 134 157 295 118 103 145 153 194 184 229 250 307 333 373 418 298 413 377 367 356 310 290 273 210 210 216 230 215 169 159 123 100 109 85 89 84 87 106 124 120 112
187 169 172 208 274 142 95 85 149 213 257 290 382 418 488 505 427 475 402 459 369 377 320 252 263 214 220 228 221 203 174 174 173 82 138 101 67 74 94 123 114 124 102
155 160 166 201 197 197 196 188 214 261 307 389 443 521 581 573 526 532 460 476 412 396 298 234 259 265 256 233 207 183 173 199 159 133 96 102 84 90 102 130 108 116 107
176 214 203 204 227 218 203 256 295 371 415 419 434 469 451 449 430 421 381 399 380 338 294 259 277 251 211 191 166 156 182 157 153 112 80 139 91 101 125 131 87 83 129
216 229 243 247 258 240 277 366 496 495 502 527 462 485 457 435 369 364 390 389 367 303 257 261 228 201 186 173 167 191 224 216 241 149 105 129 101 119 130 117 107 106 120
272 276 281 270 281 343 381 461 482 527 584 547 535 437 440 409 346 336 331 316 301 285 263 240 208 198 196 193 213 254 235 261 182 143 161 170 152 144 173 119 133 86 108

GFSMA_con_3kmhel_078.txt.gz
Helicity
225 206 233 127 90 75 39 29 20 -2 19 14 20 15 20 33 19 8 13 17 11 13 11 15 10 8 3 6 8 3 9 15 16 23 33 30 32 43 50 51 54 56 67
257 142 189 140 131 69 36 26 -0 15 34 36 21 50 43 33 12 16 24 13 14 -2 -6 2 -4 -8 -5 -5 -0 1 6 8 4 15 22 35 28 31 36 40 45 51 59
97 205 155 148 123 58 41 44 6 18 31 42 59 53 49 33 32 27 28 25 16 3 9 7 8 8 3 -1 -1 3 10 10 10 19 21 18 16 21 30 36 42 43 49
137 172 160 141 177 122 73 10 2 25 63 48 53 52 48 35 27 23 16 15 13 9 11 24 34 22 22 16 12 -0 5 9 14 19 16 11 15 21 25 26 19 15 26
142 97 215 195 117 40 36 35 29 53 43 39 40 46 39 32 22 17 15 7 11 8 32 79 41 38 30 19 17 11 18 32 23 13 6 -2 4 21 29 24 20 15 4
150 156 62 103 46 63 127 104 64 42 21 34 37 31 27 22 21 14 10 16 17 11 13 24 65 43 56 34 25 32 31 53 49 29 20 4 13 27 25 36 30 13 4
115 86 101 1 2 58 74 95 72 36 26 30 33 29 26 22 23 24 27 28 25 33 23 40 53 76 96 77 56 46 39 30 39 50 37 27 29 43 45 55 49 35 30
91 57 21 97 75 168 178 67 41 34 34 38 49 40 37 37 34 38 48 54 77 78 94 55 86 79 88 92 94 97 90 67 50 51 68 47 54 89 102 98 69 84 61
101 49 71 134 187 232 43 78 59 34 36 48 39 58 61 47 71 62 40 80 48 83 103 74 90 125 140 146 168 132 122 93 62 65 81 82 109 119 126 128 136 141 127
126 104 84 80 205 30 28 32 34 25 11 39 78 46 70 80 57 50 58 71 87 85 104 114 148 110 161 221 167 125 157 116 107 86 82 82 88 115 111 117 92 145 126
154 167 266 107 92 39 23 18 28 14 27 28 72 93 80 76 71 64 48 54 90 97 101 126 68 124 174 190 126 150 141 110 116 118 106 112 125 127 95 88 72 94 80
248 189 108 91 108 15 -11 2 13 19 25 53 62 74 83 111 57 66 62 53 124 205 119 91 99 134 149 181 170 158 106 112 133 156 151 183 180 177 137 123 110 90 79
177 180 -46 -52 -53 -104 -78 -101 -63 -39 48 36 77 78 95 96 80 98 107 149 211 160 156 171 133 143 196 196 161 157 150 162 198 183 213 191 182 156 132 117 115 114 114
175 52 19 -27 -79 -79 -117 -126 -86 -1 52 73 65 67 79 86 112 136 163 160 195 189 189 151 140 177 176 172 202 198 197 212 235 227 191 181 168 139 125 127 122 109 102
120 88 34 24 -34 -41 -68 -81 -40 21 54 46 38 58 97 152 169 178 197 226 202 195 174 186 172 206 195 245 234 166 183 271 240 211 197 183 159 149 148 136 134 127 130
101 118 91 44 36 17 -14 -37 -63 19 40 66 105 93 110 144 160 237 233 144 189 184 191 119 162 243 223 297 296 221 165 229 202 224 206 188 165 157 143 133 127 125 128
105 102 87 63 58 65 63 69 45 63 85 139 138 136 154 190 202 191 214 156 187 186 209 305 265 329 318 238 284 226 175 155 194 196 185 173 169 151 133 130 128 121 122
133 118 96 80 74 65 69 89 115 189 215 292 145 127 135 274 226 167 191 163 204 253 299 273 301 269 310 344 312 259 189 188 179 241 208 180 141 120 112 108 104 108 108
49 78 78 92 105 107 87 105 188 226 207 152 191 239 301 337 213 189 322 434 348 382 289 267 362 380 347 349 253 248 204 199 191 202 143 111 105 123 120 115 92 103 103
70 59 87 131 101 104 129 145 153 178 193 112 125 192 181 144 152 271 345 392 363 501 371 328 366 384 324 338 340 258 216 221 217 182 162 145 152 120 119 86 83 52 59
104 82 106 127 134 110 146 231 280 239 177 85 157 217 260 248 261 328 422 491 616 495 346 387 342 381 343 400 304 266 237 235 206 163 176 153 153 167 178 100 64 63 114
112 92 104 131 166 164 179 221 262 265 38 109 190 256 317 323 360 441 450 491 487 436 380 369 372 357 339 381 260 259 234 252 251 176 189 190 159 208 144 110 134 110 88
107 98 104 119 108 127 170 188 256 140 137 203 286 375 441 447 494 563 641 562 675 563 462 435 377 339 332 337 305 243 227 239 219 176 186 167 178 176 117 99 98 100 94
134 131 91 81 102 146 178 176 199 227 340 351 377 403 481 548 584 644 651 617 540 491 411 355 368 360 324 243 191 224 243 231 207 149 128 188 177 142 136 104 100 81 100
159 127 164 139 153 218 223 273 367 475 496 499 482 470 487 535 526 535 504 495 436 363 391 406 391 378 304 253 251 271 247 267 253 188 176 225 145 142 155 107 72 103 94
235 294 335 300 288 292 246 321 439 499 532 568 573 609 590 553 568 437 396 270 304 286 288 291 293 252 239 263 229 204 259 279 223 211 237 237 197 149 154 130 135 120 133

GFSMA_con_3kmhel_084.txt.gz
Helicity
278 231 198 259 168 114 104 82 48 98 71 83 81 49 49 162 88 85 58 66 54 39 35 35 29 24 20 22 20 25 38 43 49 49 50 50 55 53 51 53 55 58 67
320 298 389 168 119 100 99 67 86 91 98 65 79 61 89 98 61 71 76 56 46 33 26 28 26 19 13 19 23 21 27 25 26 34 40 46 44 41 41 36 35 45 60
423 384 276 192 152 90 69 109 131 107 113 77 67 86 92 90 51 77 60 46 27 26 24 23 17 14 14 20 14 13 12 13 27 32 38 39 38 35 30 30 29 28 37
393 316 369 277 268 93 169 180 138 105 85 90 79 78 80 83 102 72 46 53 35 20 17 31 19 13 16 22 17 22 24 28 27 41 37 30 26 21 19 13 12 16 21
599 640 381 197 100 220 232 213 117 113 100 100 83 51 76 62 76 38 79 58 42 59 47 33 37 35 37 25 27 36 41 42 42 45 42 36 32 23 18 7 -1 4 21
553 368 446 181 228 268 249 205 195 160 131 68 43 55 52 74 47 36 81 59 33 102 86 81 62 57 61 48 46 61 62 65 59 56 68 68 43 36 24 6 13 20 22
500 358 304 244 237 217 171 180 180 132 130 96 52 142 77 77 45 60 68 68 90 108 101 161 133 102 86 116 89 66 66 73 72 85 76 68 58 58 39 48 36 30 30
379 274 351 294 210 139 162 164 174 130 85 46 172 144 117 82 65 57 57 70 60 91 75 127 146 135 128 112 110 110 90 66 84 131 104 82 66 71 57 55 61 44 47
370 319 239 211 181 106 109 95 105 107 81 153 138 100 115 77 85 36 45 77 75 76 85 85 119 156 133 213 175 165 156 84 64 102 135 133 129 129 104 100 81 59 62
163 110 48 -13 -6 -9 19 19 -13 16 106 122 93 96 135 100 129 81 38 19 59 86 87 122 155 126 120 183 187 233 195 161 131 110 142 152 164 134 128 106 90 71 69
5 48 77 -2 -53 -36 -7 20 26 -29 60 112 45 72 54 75 142 96 85 70 66 62 92 143 154 159 134 161 215 210 241 229 215 182 172 158 115 107 119 124 127 127 128
-9 68 86 45 -7 23 14 55 22 24 42 125 64 41 94 118 117 130 108 119 114 117 121 119 155 145 174 215 233 219 213 234 247 235 222 177 127 108 107 138 148 150 138
70 32 80 99 51 53 132 42 2 29 94 97 79 85 110 111 105 82 97 97 102 150 183 179 232 217 206 229 189 196 227 249 229 240 207 185 155 146 165 171 154 147 137
97 121 65 121 62 4 29 -5 136 30 125 169 99 -92 36 62 31 61 99 141 120 168 210 219 209 249 269 261 196 245 276 259 243 237 218 211 225 222 203 178 178 163 156
123 145 165 116 149 184 37 70 49 -15 -42 -63 129 18 -25 135 103 100 148 175 191 159 166 196 204 193 215 254 266 325 308 276 238 266 275 252 258 246 210 200 188 182 169
188 202 200 159 127 112 88 36 15 48 37 97 135 162 146 146 152 167 177 197 188 206 191 246 223 214 182 264 305 306 258 260 239 282 304 285 257 259 206 207 196 182 158
226 219 241 230 201 186 161 82 60 41 46 42 124 119 120 160 194 210 223 225 291 361 352 294 344 293 199 285 302 274 273 284 280 287 297 289 278 243 231 221 190 176 179
226 230 191 166 150 141 143 97 86 44 26 57 59 80 106 159 173 208 292 278 334 349 428 364 468 383 331 281 356 357 359 331 312 256 275 327 299 251 173 192 176 184 183
177 182 192 215 196 177 137 114 69 60 38 66 103 125 119 134 165 230 302 324 339 343 369 310 322 386 308 252 391 459 420 421 425 381 345 349 257 190 201 189 221 195 171
187 201 204 202 188 182 139 80 83 100 96 90 91 141 158 171 246 323 371 353 344 301 261 264 241 350 382 534 610 619 623 534 463 367 327 301 227 240 242 188 175 172 157
233 246 258 233 199 197 173 168 167 161 166 171 191 211 223 232 328 427 399 414 397 300 259 305 374 533 526 633 671 812 622 621 477 323 344 375 342 348 270 191 176 155 176
257 248 264 283 263 237 238 240 237 223 208 206 209 209 229 306 341 333 412 398 399 356 327 338 379 475 524 688 799 887 792 801 601 247 296 299 319 338 272 238 207 198 185
278 293 288 295 279 258 262 276 259 244 229 226 225 250 344 439 419 414 399 475 533 488 394 358 456 651 710 781 876 756 874 834 421 299 266 274 337 304 234 233 214 213 200
305 311 302 295 266 250 270 297 295 279 249 232 269 306 352 402 406 425 413 488 614 629 606 674 720 699 698 672 689 713 643 411 288 284 267 320 264 288 220 254 248 183 187
280 296 287 272 261 218 223 250 335 340 289 425 539 549 482 509 490 490 589 646 697 754 744 749 796 821 696 732 783 594 562 322 231 236 228 297 241 237 288 290 242 168 201
237 235 217 301 319 253 344 264 292 448 555 590 596 573 513 497 522 519 508 523 646 623 613 718 589 587 566 558 456 274 351 300 265 300 284 308 272 315 327 294 277 316 247

GFSMA_con_3kmhel_087.txt.gz
Helicity
226 211 252 222 193 136 118 113 110 73 91 134 104 163 149 99 66 75 71 72 64 40 45 44 36 38 35 35 34 36 37 46 60 69 76 82 78 79 76 68 65 70 77
224 272 228 228 177 157 105 85 99 71 122 138 150 130 133 119 77 81 91 67 54 45 40 42 38 35 29 26 25 27 37 42 54 62 70 77 70 66 71 58 56 63 64
244 235 282 286 215 248 85 79 105 104 143 121 168 112 134 53 70 97 93 76 55 49 41 38 32 24 19 14 12 13 26 26 34 41 40 48 55 58 58 57 44 40 49
269 305 317 279 240 237 68 69 71 132 135 104 185 143 102 71 40 76 88 65 59 43 29 29 25 22 16 11 10 11 20 15 9 28 29 41 48 53 46 36 32 31 32
296 361 388 328 161 216 145 109 138 156 166 119 168 167 86 76 48 47 63 62 47 30 31 26 31 22 21 9 -0 11 12 16 25 27 30 41 47 46 34 29 21 18 17
268 307 381 331 217 236 209 168 204 180 130 129 126 127 116 63 53 45 44 34 35 51 52 57 48 31 36 25 16 17 14 37 43 43 43 47 53 55 35 34 20 14 17
437 617 486 434 368 318 295 220 202 174 121 129 163 128 88 37 64 82 85 69 48 54 60 73 67 66 54 64 61 40 29 42 61 64 61 75 60 50 47 47 32 34 34
569 593 639 384 360 259 234 232 268 276 212 156 139 161 176 138 157 70 94 84 65 91 93 89 104 104 113 101 89 83 76 63 80 99 90 85 87 87 64 53 47 48 38
589 385 310 129 209 241 251 175 223 239 181 192 150 195 226 214 138 111 82 91 115 139 145 133 152 159 155 153 127 125 123 99 79 86 121 165 150 127 110 78 70 68 56
172 182 251 198 292 323 289 134 149 146 163 149 182 158 201 129 159 108 109 73 69 98 119 126 186 161 166 185 191 199 203 175 139 92 83 115 153 156 123 107 98 91 70
165 156 123 145 239 259 297 129 109 125 203 117 125 159 157 172 161 152 115 62 52 55 -12 55 98 163 209 220 225 239 252 231 186 145 116 117 134 154 151 110 91 84 94
110 114 62 23 57 31 4 11 -14 -12 77 50 69 161 159 196 129 132 56 86 104 103 69 63 130 121 153 206 223 254 284 265 217 175 145 147 145 163 134 121 107 106 112
105 11 -1 33 44 86 102 80 48 13 52 158 115 78 123 125 136 132 138 106 89 95 96 107 120 126 159 201 179 195 217 260 257 235 200 183 175 180 175 153 126 136 132
117 89 97 87 47 59 86 84 98 71 140 151 90 83 157 114 162 152 152 149 103 81 107 111 115 180 204 225 202 222 226 227 229 232 204 203 233 226 191 188 186 186 159
86 77 89 53 28 2 16 40 50 54 60 41 62 105 137 151 148 153 149 142 154 124 121 165 212 234 257 273 240 255 237 271 237 254 227 265 240 231 261 260 248 223 172
110 78 68 53 21 10 22 23 13 31 6 28 -1 100 127 190 159 196 154 142 158 145 137 192 207 266 319 320 243 240 299 336 315 235 237 262 263 287 271 264 237 227 174
186 165 135 77 51 43 49 52 76 90 61 82 116 129 148 165 173 204 193 179 167 223 218 142 202 255 324 374 336 335 346 369 278 228 259 300 305 316 287 261 249 214 187
191 201 178 168 142 104 88 69 94 99 96 94 92 111 76 179 146 172 193 180 212 219 271 193 238 255 261 259 338 319 405 315 261 242 261 313 319 301 304 275 237 206 173
196 196 199 205 190 160 141 126 103 93 121 117 154 148 127 178 148 181 219 206 235 271 322 276 267 279 214 277 337 303 365 397 297 306 306 313 328 319 257 245 223 179 160
208 222 230 207 172 156 155 175 183 157 134 129 143 133 149 213 188 190 236 236 245 305 319 306 262 260 299 273 315 331 368 450 422 515 441 534 408 345 280 190 164 116 131
251 224 221 204 186 171 182 201 201 186 160 128 107 118 163 243 286 298 295 267 313 332 312 346 366 371 425 407 435 460 393 477 707 661 716 771 537 342 329 179 166 151 161
278 237 230 219 206 204 212 226 218 203 179 167 161 196 225 222 202 259 309 306 350 345 324 301 320 347 370 374 384 518 575 744 778 793 891 793 792 575 366 224 171 154 161
303 306 282 249 250 233 228 256 285 264 220 183 193 214 222 235 262 275 257 407 592 580 503 353 334 372 334 438 557 695 906 903 845 901 833 841 687 565 275 225 210 188 142
368 343 329 348 328 315 323 288 301 280 247 218 231 246 289 290 313 353 461 579 606 562 488 484 554 621 599 635 582 523 568 640 719 705 637 746 489 386 203 233 166 153 218
389 378 367 353 346 302 318 313 318 271 255 240 308 405 326 342 385 475 527 566 591 642 630 535 613 654 761 749 738 635 719 867 682 600 583 611 542 372 206 153 144 183 261
345 354 328 352 345 307 356 311 330 311 298 466 516 505 504 485 508 522 601 680 713 620 710 803 767 741 721 737 688 611 623 729 589 570 468 316 250 217 211 174 261 331 320